Location: Berlin
(52.5170°N, 13.4000°E)
Time: 00:35:27
(UTC+02:00)

ISS - Pass Details

Date: 18 July 2018
Orbit: 402 x 408 km, 51.6° (Epoch: 19 July)

Event Time Altitude Azimuth Distance (km) Brightness Sun altitude
Exits shadow 02:22:46 - 267° (W) 1,866 -0.7 -14.9°
Reaches altitude 10° 02:23:43 10° 267° (W) 1,469 -1.2 -14.8°
Maximum altitude 02:27:01 78° 180° (S) 421 -4.0 -14.7°
Drops below altitude 10° 02:30:19 10° 95° (E) 1,471 -0.8 -14.5°
Sets 02:32:24 0° 94° (E) 2,333 0.2 -14.4°
